Time,TemperatureF,DewpointF,PressureIn,WindDirection,WindDirectionDegrees,WindSpeedMPH,WindSpeedGustMPH,Humidity,HourlyPrecipIn,Conditions,Clouds,dailyrainin,SoftwareType,DateUTC
2013-05-03 00:02:00,30.5,23.0,25.95,West,264,5.0,6.0,74,0.00,,,0.00,weatherlink.com 1.10,2013-05-03 06:02:00,
2013-05-03 00:17:00,30.6,23.0,25.95,WSW,253,4.0,6.0,74,0.00,,,0.00,weatherlink.com 1.10,2013-05-03 06:17:00,
2013-05-03 00:32:00,30.0,24.0,25.95,WSW,239,4.0,5.0,77,0.00,,,0.00,weatherlink.com 1.10,2013-05-03 06:32:00,
2013-05-03 00:47:00,28.9,23.0,25.94,SW,233,4.0,4.0,79,0.00,,,0.00,weatherlink.com 1.10,2013-05-03 06:47:00,
2013-05-03 01:02:00,28.7,23.0,25.94,SW,215,2.0,3.0,80,0.00,,,0.00,weatherlink.com 1.10,2013-05-03 07:02:00,
2013-05-03 01:19:00,28.3,24.0,25.93,SSE,160,1.0,1.0,82,0.00,,,0.00,weatherlink.com 1.10,2013-05-03 07:19:00,
2013-05-03 01:33:00,28.1,23.0,25.93,SSE,152,1.0,2.0,82,0.00,,,0.00,weatherlink.com 1.10,2013-05-03 07:33:00,
2013-05-03 01:48:00,27.9,23.0,25.92,South,170,2.0,2.0,82,0.00,,,0.00,weatherlink.com 1.10,2013-05-03 07:48:00,
2013-05-03 02:03:00,27.3,23.0,25.92,SSW,211,0.0,4.0,83,0.00,,,0.00,weatherlink.com 1.10,2013-05-03 08:03:00,
2013-05-03 02:18:00,27.8,23.0,25.91,SW,220,2.0,4.0,83,0.00,,,0.00,weatherlink.com 1.10,2013-05-03 08:18:00,
2013-05-03 02:33:00,28.4,23.0,25.91,SW,235,3.0,5.0,81,0.00,,,0.00,weatherlink.com 1.10,2013-05-03 08:33:00,
2013-05-03 02:48:00,27.7,23.0,25.91,SW,225,6.0,6.0,81,0.00,,,0.00,weatherlink.com 1.10,2013-05-03 08:48:00,
2013-05-03 03:03:00,27.0,22.0,25.90,SW,231,5.0,6.0,82,0.00,,,0.00,weatherlink.com 1.10,2013-05-03 09:03:00,
2013-05-03 03:18:00,26.8,23.0,25.90,WSW,252,3.0,4.0,85,0.00,,,0.00,weatherlink.com 1.10,2013-05-03 09:18:00,
2013-05-03 03:33:00,26.8,23.0,25.89,West,262,1.0,3.0,85,0.00,,,0.00,weatherlink.com 1.10,2013-05-03 09:33:00,
2013-05-03 03:48:00,26.2,23.0,25.89,West,261,0.0,1.0,87,0.00,,,0.00,weatherlink.com 1.10,2013-05-03 09:48:00,
2013-05-03 04:03:00,26.5,23.0,25.89,NW,316,1.0,2.0,86,0.00,,,0.00,weatherlink.com 1.10,2013-05-03 10:03:00,
2013-05-03 04:18:00,25.8,22.0,25.89,WNW,290,3.0,4.0,86,0.00,,,0.00,weatherlink.com 1.10,2013-05-03 10:18:00,
2013-05-03 04:33:00,26.3,23.0,25.88,West,274,4.0,5.0,87,0.00,,,0.00,weatherlink.com 1.10,2013-05-03 10:33:00,
2013-05-03 04:48:00,26.6,23.0,25.88,WNW,286,3.0,4.0,86,0.00,,,0.00,weatherlink.com 1.10,2013-05-03 10:48:00,
2013-05-03 05:03:00,26.4,23.0,25.87,WNW,300,4.0,6.0,86,0.00,,,0.00,weatherlink.com 1.10,2013-05-03 11:03:00,
2013-05-03 05:18:00,26.1,23.0,25.87,WNW,297,4.0,7.0,86,0.00,,,0.00,weatherlink.com 1.10,2013-05-03 11:18:00,
2013-05-03 05:33:00,25.7,22.0,25.87,WNW,300,2.0,4.0,87,0.00,,,0.00,weatherlink.com 1.10,2013-05-03 11:33:00,
2013-05-03 05:48:00,25.4,22.0,25.87,WNW,298,3.0,4.0,88,0.00,,,0.00,weatherlink.com 1.10,2013-05-03 11:48:00,
2013-05-03 06:03:00,25.9,23.0,25.86,WNW,297,4.0,5.0,87,0.00,,,0.00,weatherlink.com 1.10,2013-05-03 12:03:00,
2013-05-03 06:18:00,26.7,23.0,25.86,West,259,2.0,6.0,86,0.00,,,0.00,weatherlink.com 1.10,2013-05-03 12:18:00,
2013-05-03 06:33:00,27.9,24.0,25.86,NW,306,3.0,4.0,85,0.00,,,0.00,weatherlink.com 1.10,2013-05-03 12:33:00,
2013-05-03 06:48:00,29.5,26.0,25.86,WNW,297,2.0,2.0,85,0.00,,,0.00,weatherlink.com 1.10,2013-05-03 12:48:00,
2013-05-03 07:03:00,31.1,27.0,25.85,NW,311,2.0,2.0,85,0.00,,,0.00,weatherlink.com 1.10,2013-05-03 13:03:00,
2013-05-03 07:18:00,32.9,28.0,25.85,NW,318,2.0,5.0,82,0.00,,,0.00,weatherlink.com 1.10,2013-05-03 13:18:00,
2013-05-03 07:34:00,34.9,29.0,25.85,NW,319,2.0,3.0,79,0.00,,,0.00,weatherlink.com 1.10,2013-05-03 13:34:00,
2013-05-03 07:49:00,36.9,29.0,25.85,NNW,327,1.0,4.0,74,0.00,,,0.00,weatherlink.com 1.10,2013-05-03 13:49:00,
2013-05-03 08:04:00,38.7,30.0,25.84,NW,317,1.0,3.0,71,0.00,,,0.00,weatherlink.com 1.10,2013-05-03 14:04:00,
2013-05-03 08:19:00,40.7,28.0,25.84,North,360,2.0,3.0,62,0.00,,,0.00,weatherlink.com 1.10,2013-05-03 14:19:00,
2013-05-03 08:34:00,42.6,29.0,25.84,NNE,29,1.0,2.0,60,0.00,,,0.00,weatherlink.com 1.10,2013-05-03 14:34:00,
2013-05-03 08:49:00,44.3,27.0,25.83,NE,50,1.0,4.0,50,0.00,,,0.00,weatherlink.com 1.10,2013-05-03 14:49:00,
2013-05-03 09:04:00,44.9,28.0,25.83,NE,49,0.0,6.0,52,0.00,,,0.00,weatherlink.com 1.10,2013-05-03 15:04:00,
2013-05-03 09:34:00,46.5,24.0,25.82,ESE,120,4.0,8.0,41,0.00,,,0.00,weatherlink.com 1.10,2013-05-03 15:34:00,
2013-05-03 09:49:00,47.6,22.0,25.81,ENE,75,2.0,7.0,37,0.00,,,0.00,weatherlink.com 1.10,2013-05-03 15:49:00,
2013-05-03 10:04:00,47.9,22.0,25.81,NNE,14,3.0,8.0,36,0.00,,,0.00,weatherlink.com 1.10,2013-05-03 16:04:00,
2013-05-03 10:19:00,49.1,22.0,25.81,NNE,32,5.0,5.0,34,0.00,,,0.00,weatherlink.com 1.10,2013-05-03 16:19:00,
2013-05-03 10:34:00,49.9,20.0,25.80,NE,39,6.0,7.0,31,0.00,,,0.00,weatherlink.com 1.10,2013-05-03 16:34:00,
2013-05-03 10:49:00,50.2,23.0,25.80,NNW,336,5.0,8.0,35,0.00,,,0.00,weatherlink.com 1.10,2013-05-03 16:49:00,
2013-05-03 11:04:00,50.1,20.0,25.80,NNE,23,1.0,6.0,31,0.00,,,0.00,weatherlink.com 1.10,2013-05-03 17:04:00,
2013-05-03 11:19:00,50.3,23.0,25.80,North,3,4.0,8.0,34,0.00,,,0.00,weatherlink.com 1.10,2013-05-03 17:19:00,
2013-05-03 11:34:00,50.5,21.0,25.79,ESE,108,6.0,7.0,31,0.00,,,0.00,weatherlink.com 1.10,2013-05-03 17:34:00,
2013-05-03 11:49:00,50.3,19.0,25.79,NW,304,2.0,12.0,29,0.00,,,0.00,weatherlink.com 1.10,2013-05-03 17:49:00,
2013-05-03 12:04:00,50.8,21.0,25.78,NE,50,8.0,13.0,31,0.00,,,0.00,weatherlink.com 1.10,2013-05-03 18:04:00,
2013-05-03 12:19:00,50.5,19.0,25.78,NE,50,10.0,10.0,29,0.00,,,0.00,weatherlink.com 1.10,2013-05-03 18:19:00,
2013-05-03 12:34:00,50.8,22.0,25.77,NW,321,4.0,8.0,33,0.00,,,0.00,weatherlink.com 1.10,2013-05-03 18:34:00,
2013-05-03 12:50:00,51.3,20.0,25.77,NW,316,3.0,13.0,29,0.00,,,0.00,weatherlink.com 1.10,2013-05-03 18:50:00,
2013-05-03 13:05:00,51.4,22.0,25.77,NW,312,3.0,11.0,32,0.00,,,0.00,weatherlink.com 1.10,2013-05-03 19:05:00,
2013-05-03 13:20:00,52.2,21.0,25.77,NNW,329,8.0,15.0,30,0.00,,,0.00,weatherlink.com 1.10,2013-05-03 19:20:00,
2013-05-03 13:35:00,52.4,25.0,25.76,NNE,25,9.0,12.0,35,0.00,,,0.00,weatherlink.com 1.10,2013-05-03 19:35:00,
2013-05-03 14:06:00,52.7,26.0,25.75,NNE,26,10.0,14.0,35,0.00,,,0.00,weatherlink.com 1.10,2013-05-03 20:06:00,
2013-05-03 14:20:00,52.6,26.0,25.75,NNW,333,9.0,14.0,36,0.00,,,0.00,weatherlink.com 1.10,2013-05-03 20:20:00,
2013-05-03 14:35:00,53.7,24.0,25.74,North,349,2.0,10.0,32,0.00,,,0.00,weatherlink.com 1.10,2013-05-03 20:35:00,
2013-05-03 14:50:00,53.8,27.0,25.74,NE,34,3.0,10.0,35,0.00,,,0.00,weatherlink.com 1.10,2013-05-03 20:50:00,
2013-05-03 15:05:00,54.4,27.0,25.73,NW,321,5.0,11.0,35,0.00,,,0.00,weatherlink.com 1.10,2013-05-03 21:05:00,
2013-05-03 15:20:00,54.7,26.0,25.72,NE,44,5.0,13.0,33,0.00,,,0.00,weatherlink.com 1.10,2013-05-03 21:20:00,
2013-05-03 15:35:00,54.6,24.0,25.72,NW,321,1.0,9.0,31,0.00,,,0.00,weatherlink.com 1.10,2013-05-03 21:35:00,
2013-05-03 15:50:00,55.8,26.0,25.71,NNW,328,8.0,14.0,32,0.00,,,0.00,weatherlink.com 1.10,2013-05-03 21:50:00,
2013-05-03 16:05:00,55.2,25.0,25.71,NNW,333,7.0,10.0,31,0.00,,,0.00,weatherlink.com 1.10,2013-05-03 22:05:00,
2013-05-03 16:20:00,55.6,25.0,25.71,NW,307,2.0,13.0,31,0.00,,,0.00,weatherlink.com 1.10,2013-05-03 22:20:00,
2013-05-03 16:35:00,55.5,26.0,25.70,WSW,256,4.0,12.0,32,0.00,,,0.00,weatherlink.com 1.10,2013-05-03 22:35:00,
2013-05-03 16:50:00,56.4,27.0,25.70,NNE,24,8.0,15.0,32,0.00,,,0.00,weatherlink.com 1.10,2013-05-03 22:50:00,
2013-05-03 17:05:00,56.1,24.0,25.70,North,11,7.0,14.0,29,0.00,,,0.00,weatherlink.com 1.10,2013-05-03 23:05:00,
2013-05-03 17:20:00,56.3,24.0,25.70,NE,44,10.0,16.0,29,0.00,,,0.00,weatherlink.com 1.10,2013-05-03 23:20:00,
2013-05-03 17:35:00,56.4,25.0,25.69,ENE,60,8.0,14.0,30,0.00,,,0.00,weatherlink.com 1.10,2013-05-03 23:35:00,
2013-05-03 17:50:00,56.0,24.0,25.69,ENE,65,5.0,16.0,29,0.00,,,0.00,weatherlink.com 1.10,2013-05-03 23:50:00,
2013-05-03 18:05:00,56.2,27.0,25.69,NE,54,9.0,17.0,32,0.00,,,0.00,weatherlink.com 1.10,2013-05-04 00:05:00,
2013-05-03 18:20:00,55.8,25.0,25.70,East,82,10.0,13.0,31,0.00,,,0.00,weatherlink.com 1.10,2013-05-04 00:20:00,
2013-05-03 18:35:00,55.3,26.0,25.69,ENE,67,8.0,12.0,32,0.00,,,0.00,weatherlink.com 1.10,2013-05-04 00:35:00,
2013-05-03 18:50:00,54.4,28.0,25.69,ENE,67,9.0,13.0,36,0.00,,,0.00,weatherlink.com 1.10,2013-05-04 00:50:00,
2013-05-03 19:05:00,53.3,29.0,25.70,ENE,75,6.0,9.0,39,0.00,,,0.00,weatherlink.com 1.10,2013-05-04 01:05:00,
2013-05-03 19:20:00,51.2,30.0,25.70,ENE,69,5.0,7.0,44,0.00,,,0.00,weatherlink.com 1.10,2013-05-04 01:20:00,
2013-05-03 19:35:00,49.3,29.0,25.70,East,92,3.0,5.0,46,0.00,,,0.00,weatherlink.com 1.10,2013-05-04 01:35:00,
2013-05-03 19:50:00,47.5,29.0,25.70,ESE,103,3.0,3.0,49,0.00,,,0.00,weatherlink.com 1.10,2013-05-04 01:50:00,
2013-05-03 20:05:00,45.9,29.0,25.70,ENE,72,3.0,3.0,51,0.00,,,0.00,weatherlink.com 1.10,2013-05-04 02:05:00,
2013-05-03 20:20:00,45.1,29.0,25.70,ENE,59,6.0,6.0,53,0.00,,,0.00,weatherlink.com 1.10,2013-05-04 02:20:00,
2013-05-03 20:35:00,45.3,28.0,25.71,ENE,69,5.0,6.0,51,0.00,,,0.00,weatherlink.com 1.10,2013-05-04 02:35:00,
2013-05-03 20:50:00,45.0,28.0,25.71,East,82,4.0,5.0,51,0.00,,,0.00,weatherlink.com 1.10,2013-05-04 02:50:00,
2013-05-03 21:05:00,44.3,27.0,25.72,East,81,6.0,6.0,52,0.00,,,0.00,weatherlink.com 1.10,2013-05-04 03:05:00,
2013-05-03 21:20:00,43.3,27.0,25.73,ENE,71,5.0,5.0,54,0.00,,,0.00,weatherlink.com 1.10,2013-05-04 03:20:00,
2013-05-03 21:35:00,41.5,27.0,25.73,ENE,71,5.0,6.0,57,0.00,,,0.00,weatherlink.com 1.10,2013-05-04 03:35:00,
2013-05-03 21:50:00,40.6,27.0,25.73,ESE,103,7.0,7.0,58,0.00,,,0.00,weatherlink.com 1.10,2013-05-04 03:50:00,
2013-05-03 22:05:00,38.6,27.0,25.73,East,89,4.0,6.0,63,0.00,,,0.00,weatherlink.com 1.10,2013-05-04 04:05:00,
2013-05-03 22:20:00,39.1,27.0,25.73,East,85,2.0,3.0,61,0.00,,,0.00,weatherlink.com 1.10,2013-05-04 04:20:00,
2013-05-03 22:35:00,38.4,26.0,25.73,ESE,117,2.0,3.0,61,0.00,,,0.00,weatherlink.com 1.10,2013-05-04 04:35:00,
2013-05-03 22:50:00,38.0,26.0,25.73,SE,134,1.0,2.0,63,0.00,,,0.00,weatherlink.com 1.10,2013-05-04 04:50:00,
2013-05-03 23:05:00,37.2,26.0,25.74,SSW,204,1.0,3.0,64,0.00,,,0.00,weatherlink.com 1.10,2013-05-04 05:05:00,
2013-05-03 23:20:00,37.7,25.0,25.74,ESE,108,4.0,6.0,61,0.00,,,0.00,weatherlink.com 1.10,2013-05-04 05:20:00,
2013-05-03 23:50:00,37.8,25.0,25.75,East,80,2.0,4.0,60,0.00,,,0.00,weatherlink.com 1.10,2013-05-04 05:50:00,